Terug naar catalogus

GOES 4 AKM

ActiefMEO
NORAD 11970·ROCKET BODY·🇺🇸 United States

Gelanceerd Sep 9, 1980 vanaf Cape Canaveral Space Force Station

Loading…

Volgende Passages (komende 24 uur)

TLE

VersSource: Space-Track

Epoch: Sep 14, 2026, 10:07 UTC

1 11970U 80074C   26257.42216381 -.00000242  00000-0  00000-0 0  9995
2 11970  16.1786 313.8170 1642823 267.6016  99.9211  0.81535929 39258

Volg GOES 4 AKM in realtime met AllMySat

Download on the App Store